Dewpoint
62 63 62 62 63 63 62 61 61 59 60 60 60 59 60 59 58 57 56 57 58 58 56 54 53 54 53 52 50 51 51 54 55 54 53 53 52 50 48 46 46 48 50 53 53 53 53 56 58 59 61 60 58 57 54 52 51 50 49 45 45 47 44 43 42 46 51 49 43 38 40 41 35 37 38 40 43 44 43 40 40 43 41 40 40
61 62 62 63 63 63 63 62 61 59 60 60 59 58 58 59 58 56 56 57 57 55 54 54 53 53 51 50 49 48 50 52 54 54 51 52 52 49 48 47 47 48 50 49 52 52 55 53 54 58 58 56 56 51 52 49 47 45 47 47 44 47 47 41 40 42 47 48 41 39 39 39 35 37 42 43 44 43 39 39 40 42 41 42 40
61 61 61 63 63 63 63 62 61 60 60 59 59 57 58 59 57 56 54 54 55 55 54 54 53 51 50 50 47 48 50 51 53 52 51 49 47 50 50 49 50 50 49 47 46 50 52 54 55 57 57 56 54 52 52 49 46 43 47 48 48 49 46 44 44 44 44 43 46 40 41 39 42 36 38 42 43 41 40 42 42 41 42 45 42
62 62 61 62 63 63 62 61 61 60 60 59 59 58 58 58 56 55 54 54 52 54 55 53 52 52 51 48 47 47 49 51 51 50 48 48 48 49 49 51 50 49 48 45 45 48 50 51 53 55 55 56 53 52 51 51 50 48 48 50 52 51 51 50 48 46 45 43 44 38 39 41 41 38 38 40 42 40 39 40 41 40 41 41 42
62 62 62 63 63 63 63 62 61 60 59 58 59 58 58 57 55 54 54 54 53 54 53 52 52 51 52 47 46 47 48 49 50 50 51 51 49 49 48 48 50 49 49 48 52 48 49 50 50 52 54 54 54 52 51 52 49 50 49 47 48 51 52 51 48 46 46 46 45 42 42 41 41 40 39 38 40 40 39 40 40 40 43 43 40
61 61 61 62 62 62 63 62 61 60 59 59 60 58 57 56 56 55 53 52 53 52 52 52 52 51 49 46 46 46 46 48 49 49 49 51 52 52 50 50 49 48 49 48 48 49 49 48 49 49 50 52 52 53 53 52 49 48 47 45 42 48 52 51 50 49 47 44 45 44 46 42 44 44 40 42 43 41 40 43 43 42 44 47 44
60 60 61 60 60 61 60 61 61 60 61 61 60 57 56 56 55 53 52 53 53 52 50 50 51 50 48 47 46 47 48 48 49 50 49 50 50 51 52 52 51 52 51 50 51 51 49 48 49 50 50 50 50 51 51 52 51 50 49 50 47 47 51 51 48 48 48 46 44 46 46 45 46 44 41 42 42 42 45 45 45 43 48 47 46
60 60 60 60 59 60 60 60 61 60 58 58 58 58 57 56 54 53 52 53 52 50 50 50 51 50 50 48 48 50 51 50 50 50 49 50 51 52 52 53 52 53 55 53 54 54 54 53 52 51 50 50 51 51 52 51 50 50 50 51 50 50 51 50 50 48 47 47 44 43 43 44 45 46 44 42 43 42 41 45 45 44 47 49 49
59 58 58 58 58 59 58 58 60 59 59 58 56 56 56 58 56 55 53 53 53 50 49 49 51 51 51 50 49 51 53 53 52 51 51 51 53 54 54 53 54 53 54 54 55 54 54 55 54 54 61 59 52 54 54 54 57 51 52 51 52 51 51 50 50 47 48 48 46 45 42 43 44 45 43 43 43 44 46 47 46 47 47 48 47
58 57 57 56 57 57 57 60 59 59 59 59 59 58 57 57 56 56 55 54 54 53 51 51 50 52 52 55 55 56 55 55 59 50 49 54 53 54 55 55 54 54 54 54 55 55 55 55 56 59 55 54 51 48 47 48 50 56 59 55 51 51 49 50 49 49 49 46 46 43 43 43 43 46 47 47 46 47 46 46 46 46 47 47 47
57 56 56 56 56 55 56 57 58 58 59 59 58 56 55 57 56 55 55 56 56 55 54 52 52 53 53 54 54 55 56 57 44 43 45 47 57 55 55 55 56 55 55 55 56 57 57 55 58 60 58 56 55 46 46 46 45 45 45 47 50 59 53 49 48 49 47 47 45 44 42 43 45 45 47 46 46 46 45 48 47 47 46 44 43
56 56 55 55 55 55 57 58 57 58 58 58 59 58 57 56 56 56 56 56 56 57 56 56 56 56 57 56 57 57 57 46 42 43 44 44 45 57 57 57 58 57 57 57 57 58 58 59 59 60 59 57 57 58 50 46 44 43 44 43 43 43 42 55 54 48 47 45 44 44 45 44 44 45 45 45 45 47 48 47 47 46 46 45 43
51 54 55 54 54 56 55 55 56 56 57 57 57 56 56 54 55 56 57 57 57 56 56 57 56 57 58 56 57 58 58 41 43 41 43 43 44 49 56 58 57 57 57 57 56 57 58 58 59 60 57 59 57 56 57 56 44 42 43 43 43 43 41 40 41 55 56 49 47 46 45 45 46 46 48 47 49 48 48 46 47 47 47 44 44
47 46 47 50 54 55 55 55 56 56 56 56 55 54 55 56 58 57 57 57 56 57 57 57 58 57 57 57 57 57 59 43 41 41 42 42 42 45 58 60 60 58 58 58 58 58 59 58 57 58 59 60 58 56 56 58 57 55 54 54 54 51 38 42 43 41 49 53 51 48 48 49 47 50 50 52 50 47 48 46 48 48 48 47 51
43 44 44 44 50 54 55 55 55 55 55 55 56 55 54 55 55 56 56 56 56 56 57 57 57 57 57 57 57 58 52 40 40 40 41 41 41 41 59 60 59 59 59 60 60 60 59 60 60 58 57 58 59 57 57 57 56 55 55 55 54 54 54 56 56 55 54 53 52 52 52 55 54 55 55 53 52 50 51 51 51 50 52 51 49
40 41 41 41 43 44 48 50 52 54 55 55 55 56 54 55 56 56 57 57 57 57 57 57 56 57 57 57 57 57 50 39 40 40 40 40 39 56 58 58 57 57 57 59 59 59 59 59 59 58 58 58 54 49 51 57 54 54 53 53 53 55 53 41 39 40 47 56 58 58 56 54 51 60 59 54 53 54 51 52 52 51 49 46 44
37 39 40 40 41 42 43 44 46 48 51 53 54 55 56 57 57 57 56 56 56 55 56 55 54 56 56 56 56 55 51 42 39 39 40 39 41 56 57 56 56 56 56 57 58 57 58 57 58 58 58 58 53 45 45 46 55 53 53 53 54 54 52 48 39 37 37 37 37 37 37 37 38 38 38 38 54 50 50 48 47 48 45 42 40
36 37 38 39 40 41 41 41 43 45 47 51 52 52 53 54 55 56 56 56 55 55 55 55 56 55 56 55 56 57 53 44 39 38 39 39 42 56 55 56 56 57 56 57 57 56 56 58 57 56 57 60 39 42 42 48 55 54 53 52 53 53 51 49 46 42 37 37 36 36 36 36 37 37 37 38 38 44 48 45 46 42 39 36 33
35 36 37 38 39 41 42 42 42 43 43 45 47 47 47 47 48 50 52 53 54 55 55 55 55 55 55 55 53 57 54 45 39 38 38 38 46 55 53 54 55 55 55 55 57 56 57 56 53 54 55 54 39 40 40 46 55 55 53 53 53 52 52 49 48 47 48 47 46 45 47 43 47 45 43 40 41 44 49 46 42 36 34 35 35
34 34 35 37 38 39 41 42 42 42 43 44 46 46 46 47 48 47 46 46 47 48 51 51 51 51 52 52 53 54 52 48 43 37 38 39 39 49 54 54 54 55 56 55 55 56 56 57 54 43 41 43 39 38 39 40 53 55 54 53 52 52 52 50 49 49 47 46 46 46 46 46 46 44 44 45 46 46 46 44 42 39 39 37 36
36 36 36 35 36 37 39 41 42 42 42 43 44 44 45 46 46 46 48 49 49 47 48 47 47 47 48 48 46 47 49 49 45 36 37 37 37 39 51 51 51 52 52 52 52 53 52 52 55 40 41 43 40 39 38 39 40 51 54 54 54 57 49 50 48 43 49 48 47 47 47 46 46 45 43 43 42 42 42 43 43 41 39 37 34
35 34 34 34 36 37 39 41 42 43 42 42 42 42 43 45 46 46 44 45 47 47 48 48 48 47 47 47 48 47 47 44 49 38 36 37 37 34 50 51 48 50 52 52 51 50 51 50 52 43 40 41 39 39 38 38 39 45 52 38 39 41 50 50 49 47 48 48 46 45 45 45 43 43 41 39 38 40 40 40 40 40 38 38 37
34 35 35 35 36 36 37 40 41 42 42 42 42 42 41 41 43 44 45 44 44 45 45 45 45 45 44 43 44 46 47 46 39 43 35 36 35 36 34 39 39 48 50 49 49 48 48 50 47 39 39 39 39 38 38 38 39 47 39 36 37 40 44 49 47 48 47 45 45 45 43 43 41 39 38 38 39 40 38 38 37 36 36 36 36
35 34 35 35 35 35 35 36 38 39 40 40 40 41 41 40 39 40 40 40 39 40 40 42 41 40 40 40 43 43 45 44 40 39 41 36 37 36 36 35 35 44 46 47 47 47 48 48 43 38 38 38 38 37 38 38 47 38 37 37 37 38 46 46 45 46 44 42 42 43 42 40 39 38 37 38 38 38 37 37 37 36 36 35 32
35 34 34 34 35 35 36 37 38 37 37 37 36 36 37 38 37 37 38 37 37 37 36 38 38 39 38 38 38 39 42 43 45 42 39 39 38 38 38 37 37 35 47 46 46 46 39 37 36 36 37 37 36 36 36 38 37 36 36 36 39 46 46 45 48 47 46 45 41 42 40 39 38 38 39 38 38 37 36 37 37 37 37 37 37
34 34 34 35 34 33 36 36 37 38 38 36 37 36 37 35 35 36 35 36 35 36 34 34 34 36 36 36 35 37 39 39 41 41 40 40 40 39 40 39 38 38 39 41 35 35 34 35 34 35 35 38 45 47 48 46 37 36 36 39 45 47 46 49 45 47 44 48 47 46 41 43 38 39 38 37 34 32 33 33 32 32 34 33 33
35 35 35 35 36 34 36 35 34 36 38 36 36 36 35 35 36 34 34 35 36 35 35 34 34 33 34 35 35 36 36 37 38 38 39 39 39 39 41 42 38 37 41 45 38 42 43 40 38 36 36 36 37 38 39 37 39 41 43 44 44 43 44 45 45 47 49 44 45 46 40 44 44 37 34 33 32 32 33 32 31 32 32 31 31
34 35 36 35 33 32 33 32 32 32 34 35 34 34 34 36 34 36 37 36 37 36 36 35 34 36 35 35 35 36 35 36 37 37 38 37 38 38 39 41 43 43 44 45 45 45 43 35 38 41 41 42 42 42 42 43 44 43 45 45 45 45 46 42 44 47 46 48 46 43 39 38 35 41 35 32 32 35 34 31 31 28 29 30 31
36 37 35 33 32 31 33 33 33 32 31 31 31 33 35 37 36 36 37 36 35 37 38 36 36 36 35 35 35 36 36 36 38 35 36 35 35 38 40 40 41 41 40 37 42 45 42 41 41 41 40 38 37 41 42 42 42 44 46 46 44 42 43 44 45 46 45 44 42 40 38 40 39 39 38 38 33 31 32 32 33 32 30 30 31
36 34 33 32 32 31 32 30 32 32 32 31 32 33 32 33 34 36 36 34 34 34 34 36 37 37 37 38 39 35 36 38 35 35 35 35 35 35 35 36 35 37 37 35 37 42 41 41 39 39 38 39 38 37 39 41 39 41 42 40 42 42 42 43 44 44 41 40 40 38 38 37 36 37 35 35 34 33 33 31 31 32 31 31 31
33 31 30 31 32 32 31 30 30 30 32 32 34 32 33 32 33 33 34 34 34 34 34 34 34 34 35 37 37 35 35 35 35 34 34 35 35 35 35 35 35 35 35 36 38 39 37 37 37 38 38 38 38 37 37 38 37 39 41 41 43 43 40 43 43 38 36 35 36 36 35 36 36 36 34 33 33 33 33 32 33 33 33 32 28
33 31 30 30 32 30 29 30 31 31 30 31 31 32 32 33 34 33 33 33 34 34 34 34 34 34 34 34 35 38 35 34 34 34 34 35 35 35 35 34 34 35 35 34 37 36 35 36 35 36 37 37 37 35 35 37 38 38 38 39 40 40 39 39 39 37 35 35 33 33 34 35 36 34 34 33 31 34 33 30 31 30 30 28 28
35 34 33 32 31 30 29 30 30 32 32 32 34 33 32 32 33 33 34 33 33 33 34 34 35 34 34 35 35 34 34 34 34 34 34 34 34 35 35 35 34 33 34 36 37 35 36 37 35 37 36 35 36 37 38 38 38 38 38 38 37 38 39 39 36 37 35 34 33 32 32 32 32 31 32 32 31 31 32 31 31 30 28 27 26
34 35 36 35 33 31 33 33 31 31 32 33 34 33 32 34 33 34 32 33 34 34 34 34 35 34 35 35 35 34 34 34 34 34 33 33 34 34 34 36 35 33 34 38 37 36 35 35 36 36 36 37 38 38 38 37 37 37 37 37 38 38 39 39 37 35 33 33 33 33 33 33 32 32 32 32 32 31 29 29 29 29 27 27 27
33 33 32 34 32 33 32 31 32 33 33 33 32 32 34 33 33 32 32 32 33 32 32 35 34 34 34 35 34 34 34 34 34 34 33 33 33 33 34 38 35 36 41 37 35 36 36 37 37 38 37 37 38 38 38 39 38 37 37 36 38 38 38 37 37 35 34 35 34 33 33 34 34 33 32 31 30 30 28 28 28 28 28 27 27
31 32 35 34 32 33 31 32 34 33 33 33 34 32 32 32 33 32 32 32 34 32 30 30 29 34 34 34 34 34 34 34 34 34 33 33 33 33 34 32 31 31 32 33 35 37 37 37 37 38 38 38 39 38 39 38 37 38 38 37 36 37 35 35 34 34 35 35 34 34 34 33 33 32 32 31 32 30 27 27 26 26 28 28 26
31 31 32 32 32 32 33 33 33 32 31 31 32 32 32 33 31 31 32 31 32 31 29 30 33 34 34 34 34 34 34 34 34 34 33 33 33 34 33 32 33 34 33 34 35 36 36 37 37 38 38 38 39 39 39 39 38 38 36 38 38 36 35 34 33 33 33 33 33 33 33 33 33 33 31 30 29 28 27 27 25 26 26 26 27
34 32 32 34 33 33 33 33 32 31 32 32 32 32 31 31 31 30 30 30 31 32 31 32 33 32 31 32 35 34 34 33 34 34 33 33 32 34 34 34 33 33 33 34 35 36 37 38 39 39 39 39 39 39 39 38 38 37 36 37 35 34 34 34 34 35 34 34 34 34 33 33 33 32 31 29 27 26 25 25 24 25 25 25 25
33 31 29 33 32 32 31 31 32 32 32 31 31 31 30 30 30 30 30 30 32 32 31 32 32 31 31 31 32 34 34 33 32 32 32 32 33 34 34 35 35 34 34 35 36 36 37 37 37 36 37 38 38 37 37 37 38 37 36 34 34 35 34 34 34 34 34 34 34 34 33 33 32 30 28 27 26 25 24 26 25 26 25 25 25
32 32 32 31 33 32 31 31 31 31 31 32 30 30 28 29 29 29 30 31 31 30 30 31 30 31 31 31 31 33 33 32 32 32 32 32 33 34 34 34 35 34 34 35 35 35 35 34 34 34 34 34 35 37 38 37 36 36 36 34 34 34 34 33 33 33 33 34 34 33 32 30 28 27 27 25 24 24 25 25 25 25 25 25 23
32 33 32 32 32 31 32 31 31 31 31 30 29 30 30 30 30 30 30 31 31 30 30 31 31 31 31 31 32 32 33 32 32 33 32 33 33 33 33 34 34 34 33 33 33 32 32 32 32 32 32 32 33 32 34 35 35 34 34 34 34 33 33 33 33 33 33 33 33 32 30 27 26 25 24 24 27 25 24 24 25 25 25 25 25
33 32 32 33 34 33 31 31 31 31 30 30 29 29 30 30 30 31 31 31 30 30 31 31 31 31 31 32 32 32 32 32 32 32 33 33 33 32 32 33 33 33 32 32 33 33 31 31 31 31 31 32 32 32 32 32 32 32 33 33 32 32 32 32 33 33 34 33 31 30 29 27 27 26 26 28 24 23 23 24 24 23 22 21 22
35 33 33 32 32 32 31 31 31 30 31 29 29 29 29 29 30 31 32 31 31 31 31 31 31 31 31 31 32 31 31 32 31 32 31 32 31 32 32 32 32 32 32 32 33 32 30 30 31 32 32 32 32 32 32 32 32 32 32 32 32 32 32 32 32 33 32 31 30 30 30 29 28 26 25 25 24 24 24 25 25 23 23 23 24
35 33 32 32 32 32 33 33 31 30 30 31 31 29 29 29 29 30 30 31 31 31 30 31 31 32 32 31 31 30 29 30 30 29 30 30 30 30 30 30 30 30 31 31 31 31 31 30 30 31 33 33 34 34 32 32 32 33 33 32 32 32 32 32 31 31 31 30 30 30 29 29 28 26 26 26 25 25 25 26 25 23 21 22 23
35 32 32 32 32 34 32 33 32 31 31 32 31 28 29 29 30 31 30 30 31 31 32 31 31 32 31 31 30 29 29 28 28 28 29 28 28 28 29 29 29 29 28 29 29 30 29 30 30 30 30 31 32 33 32 32 32 31 31 31 32 31 31 30 30 30 31 31 30 30 28 26 26 25 25 25 26 26 24 24 24 24 23 24 24
34 34 34 33 33 33 32 33 33 33 32 31 30 29 29 28 29 31 31 31 31 31 31 31 32 32 32 31 30 28 28 28 27 27 28 28 28 28 28 27 28 28 27 26 27 28 27 28 27 28 28 28 29 29 29 30 30 31 31 31 30 30 30 30 30 30 30 31 29 28 26 27 27 27 29 27 25 25 25 26 26 24 25 25 25
35 35 33 32 33 32 32 33 33 35 34 32 30 28 29 28 29 30 31 31 31 31 30 30 32 31 32 33 31 30 28 27 28 27 27 29 28 27 27 27 26 27 25 26 27 26 26 26 26 26 27 26 27 28 27 26 28 27 27 27 28 28 29 29 30 30 30 30 28 27 27 26 26 26 27 26 26 26 27 27 27 27 26 25 25
33 33 33 33 34 34 35 34 34 34 34 32 31 30 29 29 28 28 29 30 29 30 31 31 31 30 31 32 32 31 30 28 27 28 26 26 26 25 27 27 25 23 25 25 25 25 25 25 26 26 25 26 26 26 26 26 26 27 27 26 25 25 26 28 28 29 29 29 28 28 27 25 25 25 26 27 28 25 26 26 27 26 26 26 26
33 33 33 33 33 34 35 34 33 34 33 33 31 31 30 29 28 28 27 28 29 29 30 30 30 30 30 31 30 30 31 30 31 29 29 28 27 28 26 27 27 25 23 22 23 24 24 26 25 25 25 25 25 25 25 26 26 27 27 26 25 24 25 26 27 26 27 28 26 27 27 26 26 27 28 29 28 28 27 28 27 25 25 25 25
34 33 33 33 32 32 32 32 31 33 33 32 31 30 29 29 29 27 27 27 28 29 30 30 30 30 30 29 28 28 28 28 28 30 30 30 27 25 24 26 25 24 22 22 22 22 22 23 23 23 23 23 23 24 23 23 24 24 25 25 24 24 25 25 26 26 27 28 28 28 27 27 28 27 27 28 29 29 29 28 27 26 26 26 25
33 33 32 32 32 32 32 32 32 32 33 31 30 28 28 28 28 27 26 26 27 27 28 29 29 30 30 29 28 29 28 28 27 27 27 29 28 28 26 24 23 23 24 22 20 19 22 23 20 20 21 21 21 20 21 22 22 22 23 23 24 24 24 25 26 26 26 27 30 29 28 29 29 29 29 27 28 28 29 29 28 28 26 25 25